Location: Corona
(40.7470°N, 73.8601°W)
Time: 19:47:49
(UTC+00:00)

Cosmos 2297 Rocket - Pass Details

Date: 22 September 2019
Orbit: 841 x 842 km, 71.0° (Epoch: 22 October)

Event Time Altitude Azimuth Distance (km) Brightness Sun altitude
Rises 23:15:27 0° 174° (S) 3,381 5.2 -5.1°
Reaches altitude 10° 23:18:07 10° 164° (SSE) 2,451 4.4 -5.6°
Maximum altitude 23:23:00 31° 104° (ESE) 1,426 2.9 -6.5°
Drops below altitude 10° 23:27:55 10° 43° (NE) 2,465 4.3 -7.4°
Sets 23:30:36 0° 34° (NE) 3,404 5.1 -7.9°
